This is the latest recevied weather packets stored in our database for station/object YO6LRV-3. If no packets are shown the sender has not sent any weather packets the latest 10 day(s).
| Time | Temp. | Humidity | Pressure | Rain* | Wind** | Luminosity | Snow |
|---|---|---|---|---|---|---|---|
| 1778021473 | 17.78° C | 33% | 1012.5 hPa | - | - | - | - |
| 1778019672 | 17.78° C | 33% | 1012.5 hPa | - | - | - | - |
| 1778018772 | 17.78° C | 33% | 1012.6 hPa | - | - | - | - |
| 1778017872 | 17.78° C | 32% | 1012.6 hPa | - | - | - | - |
| 1778016972 | 18.33° C | 31% | 1012.5 hPa | - | - | - | - |
| 1778016072 | 18.33° C | 31% | 1012.6 hPa | - | - | - | - |
| 1778015171 | 18.89° C | 30% | 1012.7 hPa | - | - | - | - |
| 1778014271 | 19.44° C | 29% | 1012.5 hPa | - | - | - | - |
| 1778013371 | 19.44° C | 28% | 1011.7 hPa | - | - | - | - |
| 1778012471 | 20° C | 27% | 1012.3 hPa | - | - | - | - |
| 1778011571 | 20° C | 27% | 1012.3 hPa | - | - | - | - |
| 1778010671 | 20.56° C | 27% | 1012.3 hPa | - | - | - | - |
| 1778009771 | 20.56° C | 28% | 1012.3 hPa | - | - | - | - |
| 1778008871 | 21.11° C | 29% | 1012.2 hPa | - | - | - | - |
| 1778007973 | 21.11° C | 31% | 1012.1 hPa | - | - | - | - |
| 1778007073 | 21.67° C | 27% | 1012.1 hPa | - | - | - | - |
| 1778006172 | 21.67° C | 27% | 1012.1 hPa | - | - | - | - |
| 1778005272 | 22.22° C | 26% | 1012.1 hPa | - | - | - | - |
| 1778004372 | 22.22° C | 30% | 1012 hPa | - | - | - | - |
| 1778003472 | 22.78° C | 26% | 1011.9 hPa | - | - | - | - |
| 1778002572 | 22.78° C | 26% | 1011.8 hPa | - | - | - | - |
| 1778001672 | 23.33° C | 24% | 1011.8 hPa | - | - | - | - |
| 1778000772 | 23.33° C | 27% | 1011.8 hPa | - | - | - | - |
| 1777999872 | 23.89° C | 29% | 1011.8 hPa | - | - | - | - |
| 1777998972 | 23.89° C | 29% | 1011.9 hPa | - | - | - | - |
* Rain since midnight (hover to see other rain measurements)
** Current wind speed in m/s (hover to see current wind gust speed)